Location: Austin
(30.3000°N, 97.7500°W)
Time: 06:34:30
(UTC-05:00)

Cosmos 1862 - Pass Details

Date: 16 June 2025
Orbit: 479 x 494 km, 82.5° (Epoch: 08 July)

Event Time Altitude Azimuth Distance (km) Brightness Sun altitude
Exits shadow 05:18:57 18° 198° (SSW) 1,270 4.7 -13.5°
Maximum altitude 05:21:35 64° 276° (W) 550 3.1 -13.1°
Drops below altitude 10° 05:25:16 10° 359° (N) 1,696 6.3 -12.5°
Sets 05:27:24 0° 3° (N) 2,582 7.4 -12.1°
